Location: Unspecified
(0.0000°N, 0.0000°E)
Time: 16:24:16
(UTC+00:00)

Tiangong 1 - Pass Details

Date: 20 January 2017
Orbit: 313 x 338 km, 42.8° (Epoch: 18 August)

Event Time Altitude Azimuth Distance (km) Brightness Sun altitude
Exits shadow 04:08:53 - 68° (ENE) 1,683 4.9 -28.5°
Enters shadow 05:05:10 -72° 308° (NW) 12,483 8.7 -15.4°
Maximum altitude 05:43:19 41° 225° (SW) 492 1.4 -6.5°
